(346893) = 1999 TC169 = 2009 RT43

Discovered at Kitt Peak on 2009-09-15 by Spacewatch.

Orbit

Orbit type: Main Belt

Note: WebGL enabled browser required.

epoch2024-03-31.0
epoch JD2460400.5
perihelion date2023-02-12.05929
perihelion JD2459987.55929
argument of perihelion (°)154.58349
ascending node (°)220.78301
inclination (°)4.96820
eccentricity0.1426544
perihelion distance (AU)1.9143292
Tisserand w.r.t. Jupiter3.6
ΔV w.r.t. Earth (km/sec)8.7
semimajor axis (AU)2.2328559
mean anomaly (°)121.98334
mean daily motion (°/day)0.29540160
aphelion distance (AU)2.551
period (years)3.34
P-vector [x]0.96319725
P-vector [y]0.22946067
P-vector [z]0.13999595
Q-vector [x]-0.26277567
Q-vector [y]0.91343954
Q-vector [z]0.31076866
absolute magnitude18.05
phase slope0.15
uncertainty0
referenceMPEC 2024-E73
observations used196
oppositions11
arc length (days)8913
first opposition used1999
last opposition used2024
residual rms (arc-secs)0.77
perturbers coarse indicatorM-v
perturbers precise indicator003Ek
first observation date used1999-10-10.0
last observation date used2024-03-05.0
computer nameMPCLINUX
JD of orbit computation2456700.227651
perihelion JD uncertainty (days)8.7670E-05
argument of perihelion uncertainty (°)7.9570E-05
ascending node uncertainty (°)7.4552E-05
inclination uncertainty (°)7.5441E-06
eccentricity uncertainty 7.2413E-08
perihelion distance uncertainty (AU)1.6466E-07
Minimum Orbit Intersection Distances (in AU)
for orbit epoch: 2460400.5, reference: E2024-E73
Mercury1.56788
Venus1.19338
Earth0.91716
Mars0.48374
Jupiter2.90734
Saturn6.82945
Uranus15.9316
Neptune27.8715

Observations

203 total observations over interval: 1999 10 10.25960 – 2024 03 05.156838
These data are available for download (format description).

Date (UT) J2000 RA J2000 Dec Magn Location Ref
1999 10 10.25960 01 11 58.67 +11 52 55.8 19.6   704 – Lincoln Laboratory ETS, New Mexico MPS 13869
1999 10 10.27535 01 11 57.88 +11 52 47.6 19.6   704 – Lincoln Laboratory ETS, New Mexico MPS 13869
1999 10 10.29108 01 11 57.06 +11 52 39.2 19.6   704 – Lincoln Laboratory ETS, New Mexico MPS 13869
1999 10 10.30685 01 11 56.21 +11 52 30.7 19.5   704 – Lincoln Laboratory ETS, New Mexico MPS 13869
1999 10 10.32261 01 11 55.37 +11 52 22.0 20.0   704 – Lincoln Laboratory ETS, New Mexico MPS 13869
1999 10 13.25077 01 09 28.31 +11 25 00.8 19.6   704 – Lincoln Laboratory ETS, New Mexico MPS 13869
1999 10 13.26641 01 09 27.46 +11 24 51.9 20.1   704 – Lincoln Laboratory ETS, New Mexico MPS 13869
1999 10 13.28282 01 09 26.56 +11 24 42.9 20.1   704 – Lincoln Laboratory ETS, New Mexico MPS 13869
1999 10 13.29889 01 09 25.68 +11 24 33.1 19.4   704 – Lincoln Laboratory ETS, New Mexico MPS 13869
1999 10 13.31922 01 09 24.60 +11 24 21.3 19.9   704 – Lincoln Laboratory ETS, New Mexico MPS 13869
1999 10 15.25302 01 07 47.95 +11 05 58.0 19.8   704 – Lincoln Laboratory ETS, New Mexico MPS 15365
1999 10 15.26886 01 07 47.09 +11 05 48.2 20.3   704 – Lincoln Laboratory ETS, New Mexico MPS 15365
1999 10 15.28475 01 07 46.26 +11 05 40.0 20.3   704 – Lincoln Laboratory ETS, New Mexico MPS 15366
1999 10 15.30133 01 07 45.41 +11 05 29.0 20.1   704 – Lincoln Laboratory ETS, New Mexico MPS 15366
1999 10 15.31724 01 07 44.55 +11 05 21.1 19.8   704 – Lincoln Laboratory ETS, New Mexico MPS 15366
2006 12 16.21727 06 02 50.62 +16 39 34.8   691 – Steward Observatory, Kitt Peak-Spacewatch MPS 298387
2006 12 16.23808 06 02 49.12 +16 39 32.0   691 – Steward Observatory, Kitt Peak-Spacewatch MPS 298387
2006 12 16.27831 06 02 46.27 +16 39 26.4   691 – Steward Observatory, Kitt Peak-Spacewatch MPS 298387
2008 04 14.25684 14 09 49.31 -14 35 38.0 21.4 V 691 – Steward Observatory, Kitt Peak-Spacewatch MPS 298387
2008 04 14.27446 14 09 48.28 -14 35 31.8 20.7 V 691 – Steward Observatory, Kitt Peak-Spacewatch MPS 298387
2008 04 14.29206 14 09 47.26 -14 35 24.4 21.1 V 691 – Steward Observatory, Kitt Peak-Spacewatch MPS 298387
2008 04 14.41959 14 09 39.78 -14 34 32.9 21.1 V G96 – Mt. Lemmon Survey MPS 298387
2008 04 14.42252 14 09 39.63 -14 34 31.7 21.0 V G96 – Mt. Lemmon Survey MPS 298387
2008 04 14.42543 14 09 39.45 -14 34 30.1 21.2 V G96 – Mt. Lemmon Survey MPS 298387
2008 04 14.42837 14 09 39.31 -14 34 28.8 21.0 V G96 – Mt. Lemmon Survey MPS 298387
2009 09 15.29059 01 14 05.15 +13 41 03.6 20.1 V 691 – Steward Observatory, Kitt Peak-Spacewatch MPS 295996
2009 09 15.30825 01 14 04.63 +13 40 59.0 20.1 V 691 – Steward Observatory, Kitt Peak-Spacewatch MPS 295996
2009 09 15.32593 01 14 04.11 +13 40 54.4 20.0 V 691 – Steward Observatory, Kitt Peak-Spacewatch MPS 295996
2009 09 19.24376 01 12 08.57 +13 21 19.4   691 – Steward Observatory, Kitt Peak-Spacewatch MPS 295996
2009 09 19.26140 01 12 07.97 +13 21 13.9   691 – Steward Observatory, Kitt Peak-Spacewatch MPS 295996
2009 09 19.27938 01 12 07.34 +13 21 08.0   691 – Steward Observatory, Kitt Peak-Spacewatch MPS 295996
2009 09 19.94072 01 11 45.06 +13 17 20.6 19.1 R 152 – Moletai Astronomical Observatory MPS 298387
2009 09 19.95819 01 11 44.43 +13 17 16.1 19.3 R 152 – Moletai Astronomical Observatory MPS 298387
2009 09 30.23918 01 04 44.32 +12 05 25.6 19.6 V G96 – Mt. Lemmon Survey MPS 298387
2009 09 30.24521 01 04 44.04 +12 05 22.5 19.6 V G96 – Mt. Lemmon Survey MPS 298387
2009 09 30.25137 01 04 43.75 +12 05 19.5 19.5 V G96 – Mt. Lemmon Survey MPS 298387
2009 10 08.93392 00 57 41.33 +10 48 47.0 19.3 V J75 – OAM Observatory, La Sagra MPS 298387
2009 10 08.94618 00 57 40.66 +10 48 39.6 19.2 V J75 – OAM Observatory, La Sagra MPS 298387
2009 10 08.95860 00 57 40.06 +10 48 32.7 18.7 V J75 – OAM Observatory, La Sagra MPS 298387
2009 10 09.36083 00 57 19.58 +10 44 48.9 19.6 V 703 – Catalina Sky Survey MPS 298387
2009 10 09.36877 00 57 19.29 +10 44 43.1 19.4 V 703 – Catalina Sky Survey MPS 298387
2009 10 09.37679 00 57 18.90 +10 44 40.4 20.0 V 703 – Catalina Sky Survey MPS 298387
2009 10 09.38484 00 57 18.39 +10 44 35.1 19.6 V 703 – Catalina Sky Survey MPS 298387
2009 10 11.28280 00 55 44.58 +10 26 36.6 19.3 V G96 – Mt. Lemmon Survey MPS 298387
2009 10 11.31819 00 55 42.70 +10 26 16.3 19.3 V G96 – Mt. Lemmon Survey MPS 298387
2009 10 11.32390 00 55 42.42 +10 26 12.8 19.3 V G96 – Mt. Lemmon Survey MPS 298387
2009 10 15.27714 00 52 30.36 +09 48 14.3 19.5 V G96 – Mt. Lemmon Survey MPS 298387
2009 10 15.28487 00 52 29.92 +09 48 09.7 19.5 V G96 – Mt. Lemmon Survey MPS 298387
2009 10 15.29272 00 52 29.56 +09 48 05.4 19.6 V G96 – Mt. Lemmon Survey MPS 298387
2009 10 15.30009 00 52 29.17 +09 48 01.1 19.4 V G96 – Mt. Lemmon Survey MPS 298387
2009 11 18.17252 00 39 27.00 +05 39 32.5 20.2 V G96 – Mt. Lemmon Survey MPS 303400
2009 11 18.17955 00 39 27.07 +05 39 31.5 20.5 V G96 – Mt. Lemmon Survey MPS 303400
2009 11 18.18665 00 39 27.10 +05 39 30.4 20.2 V G96 – Mt. Lemmon Survey MPS 303400
2009 11 18.19380 00 39 27.14 +05 39 28.5 20.2 V G96 – Mt. Lemmon Survey MPS 303400
2009 12 10.12627 00 50 20.61 +05 23 32.4 21.1 V G96 – Mt. Lemmon Survey MPS 307376
2009 12 10.13138 00 50 20.83 +05 23 33.0 20.8 V G96 – Mt. Lemmon Survey MPS 307376
2009 12 10.13667 00 50 21.08 +05 23 33.6 22.0 V G96 – Mt. Lemmon Survey MPS 307376
2009 12 10.14181 00 50 21.30 +05 23 33.8 21.8 V G96 – Mt. Lemmon Survey MPS 307376
2012 07 28.38246 20 05 11.760 -10 37 04.07 19.8 i F51 – Pan-STARRS 1, Haleakala MPS 428921
2012 07 28.39274 20 05 11.110 -10 37 05.80 20.1 r F51 – Pan-STARRS 1, Haleakala MPS 428921
2012 07 28.40260 20 05 10.468 -10 37 07.57 20.0 r F51 – Pan-STARRS 1, Haleakala MPS 428921
2012 11 04.224838 20 37 17.845 -13 28 15.32 21.8 w F51 – Pan-STARRS 1, Haleakala MPS 439599
2012 11 04.230386 20 37 18.394 -13 28 14.11 21.9 w F51 – Pan-STARRS 1, Haleakala MPS 439599
2012 11 04.235901 20 37 18.913 -13 28 13.18 22.0 w F51 – Pan-STARRS 1, Haleakala MPS 439599
2014 01 26.44047 09 22 51.586 +06 32 13.95 21.0 w F51 – Pan-STARRS 1, Haleakala MPS 500168
2014 01 26.45285 09 22 50.808 +06 32 16.87 20.9 w F51 – Pan-STARRS 1, Haleakala MPS 500168
2014 01 26.46525 09 22 50.023 +06 32 19.90 20.9 w F51 – Pan-STARRS 1, Haleakala MPS 500168
2014 01 26.47775 09 22 49.244 +06 32 22.88 21.1 w F51 – Pan-STARRS 1, Haleakala MPS 500168
2015 05 21.43967 16 49 31.047 -18 35 08.65 21.0 w F51 – Pan-STARRS 1, Haleakala MPS 608482
2015 05 21.45177 16 49 30.319 -18 35 05.68 21.1 w F51 – Pan-STARRS 1, Haleakala MPS 608482
2015 05 21.46388 16 49 29.570 -18 35 02.56 21.1 w F51 – Pan-STARRS 1, Haleakala MPS 608482
2015 05 21.47600 16 49 28.847 -18 34 59.29 21.1 w F51 – Pan-STARRS 1, Haleakala MPS 608482
2015 06 11.36461 16 27 31.860 -17 05 34.44 20.9 w F51 – Pan-STARRS 1, Haleakala MPS 611439
2015 06 11.37671 16 27 31.085 -17 05 31.60 20.8 w F51 – Pan-STARRS 1, Haleakala MPS 611439
2015 06 11.38878 16 27 30.311 -17 05 28.59 21.0 w F51 – Pan-STARRS 1, Haleakala MPS 611439
2015 06 11.40085 16 27 29.530 -17 05 25.76 20.9 w F51 – Pan-STARRS 1, Haleakala MPS 611439
2015 06 21.07897 16 18 14.00 -16 30 24.8 21.5 V W84 – Cerro Tololo-DECam MPS 1280960
2015 06 21.11349 16 18 12.09 -16 30 18.2   W84 – Cerro Tololo-DECam MPS 1280960
2015 06 21.14800 16 18 10.22 -16 30 11.5   W84 – Cerro Tololo-DECam MPS 1280960
2015 07 09.34665 16 06 50.227 -15 50 39.26 21.5 w F51 – Pan-STARRS 1, Haleakala MPS 615083
2015 07 09.35844 16 06 49.930 -15 50 38.48 21.7 w F51 – Pan-STARRS 1, Haleakala MPS 615083
2015 07 09.37027 16 06 49.665 -15 50 37.65 21.4 w F51 – Pan-STARRS 1, Haleakala MPS 615083
2015 07 09.38214 16 06 49.393 -15 50 36.56 21.6 w F51 – Pan-STARRS 1, Haleakala MPS 615083
2019 09 20.43960 00 55 34.73 +12 02 58.3 19.9 G G96 – Mt. Lemmon Survey MPS 1037086
2019 09 20.44474 00 55 34.50 +12 02 56.1 19.9 G G96 – Mt. Lemmon Survey MPS 1037086
2019 09 20.44987 00 55 34.29 +12 02 54.0 20.2 G G96 – Mt. Lemmon Survey MPS 1037086
2019 09 20.45500 00 55 34.08 +12 02 52.2 20.0 G G96 – Mt. Lemmon Survey MPS 1037086
2019 09 23.361630 00 53 36.41 +11 43 13.7 20.29 g I41 – Palomar Mountain--ZTF MPS 1037086
2019 09 23.425880 00 53 33.48 +11 42 46.3 20.32 g I41 – Palomar Mountain--ZTF MPS 1037086
